Time,TemperatureF,DewpointF,PressureIn,WindDirection,WindDirectionDegrees,WindSpeedMPH,WindSpeedGustMPH,Humidity,HourlyPrecipIn,Conditions,Clouds,dailyrainin,SoftwareType,DateUTC
2013-05-29 00:00:00,77.7,67.6,29.61,East,85,6.0,8.0,71,0.00,,---,0.00,VWS V14.01,2013-05-29 05:00:00,
2013-05-29 00:05:00,78.1,67.5,29.61,ESE,111,6.0,10.0,70,0.00,,---,0.00,VWS V14.01,2013-05-29 05:05:00,
2013-05-29 00:10:00,78.3,67.7,29.61,East,93,4.0,10.0,70,0.00,,---,0.00,VWS V14.01,2013-05-29 05:10:00,
2013-05-29 00:15:00,78.4,67.8,29.62,East,79,4.0,10.0,70,0.00,,---,0.00,VWS V14.01,2013-05-29 05:15:00,
2013-05-29 00:20:00,78.5,67.9,29.62,SE,128,4.0,10.0,70,0.00,,---,0.00,VWS V14.01,2013-05-29 05:20:00,
2013-05-29 00:25:00,78.6,67.6,29.62,ESE,106,5.0,10.0,69,0.00,,---,0.00,VWS V14.01,2013-05-29 05:25:00,
2013-05-29 00:31:00,78.6,68.0,29.62,East,101,7.0,8.0,70,0.00,,---,0.00,VWS V14.01,2013-05-29 05:31:00,
2013-05-29 00:36:00,78.6,67.6,29.62,East,86,4.0,10.0,69,0.00,,---,0.00,VWS V14.01,2013-05-29 05:36:00,
2013-05-29 00:41:00,78.7,67.7,29.62,ESE,120,6.0,10.0,69,0.00,,---,0.00,VWS V14.01,2013-05-29 05:41:00,
2013-05-29 00:46:00,78.8,67.8,29.62,East,95,5.0,11.0,69,0.00,,---,0.00,VWS V14.01,2013-05-29 05:46:00,
2013-05-29 00:51:00,78.8,67.8,29.62,ESE,103,9.0,14.0,69,0.00,,---,0.00,VWS V14.01,2013-05-29 05:51:00,
2013-05-29 00:56:00,78.9,67.9,29.61,SE,129,6.0,14.0,69,0.00,,---,0.00,VWS V14.01,2013-05-29 05:56:00,
2013-05-29 01:01:00,78.8,67.8,29.61,ENE,77,11.0,15.0,69,0.00,,---,0.00,VWS V14.01,2013-05-29 06:01:00,
2013-05-29 01:06:00,78.8,67.8,29.61,ESE,121,8.0,15.0,69,0.00,,---,0.00,VWS V14.01,2013-05-29 06:06:00,
2013-05-29 01:11:00,78.5,67.5,29.61,ESE,114,9.0,15.0,69,0.00,,---,0.00,VWS V14.01,2013-05-29 06:11:00,
2013-05-29 01:16:00,78.3,67.7,29.61,East,96,6.0,15.0,70,0.00,,---,0.00,VWS V14.01,2013-05-29 06:16:00,
2013-05-29 01:21:00,78.1,67.5,29.61,ENE,70,5.0,15.0,70,0.00,,---,0.00,VWS V14.01,2013-05-29 06:21:00,
2013-05-29 01:26:00,77.8,67.2,29.61,East,95,5.0,15.0,70,0.00,,---,0.00,VWS V14.01,2013-05-29 06:26:00,
2013-05-29 01:31:00,77.5,67.4,29.61,East,96,7.0,8.0,71,0.00,,---,0.00,VWS V14.01,2013-05-29 06:31:00,
2013-05-29 01:36:00,77.1,67.4,29.60,East,94,4.0,10.0,72,0.00,,---,0.00,VWS V14.01,2013-05-29 06:36:00,
2013-05-29 01:41:00,76.9,67.2,29.60,East,95,6.0,10.0,72,0.00,,---,0.00,VWS V14.01,2013-05-29 06:41:00,
2013-05-29 01:47:00,76.7,67.0,29.59,East,94,4.0,10.0,72,0.00,,---,0.00,VWS V14.01,2013-05-29 06:47:00,
2013-05-29 01:52:00,76.5,67.2,29.58,ESE,120,6.0,10.0,73,0.00,,---,0.00,VWS V14.01,2013-05-29 06:52:00,
2013-05-29 01:57:00,76.3,67.0,29.58,East,82,4.0,10.0,73,0.00,,---,0.00,VWS V14.01,2013-05-29 06:57:00,
2013-05-29 02:02:00,76.1,66.8,29.58,East,93,5.0,7.0,73,0.00,,---,0.00,VWS V14.01,2013-05-29 07:02:00,
2013-05-29 02:07:00,75.9,67.0,29.58,ESE,118,5.0,8.0,74,0.00,,---,0.00,VWS V14.01,2013-05-29 07:07:00,
2013-05-29 02:12:00,75.6,66.7,29.58,ESE,115,5.0,9.0,74,0.00,,---,0.00,VWS V14.01,2013-05-29 07:12:00,
2013-05-29 02:17:00,75.4,66.9,29.58,East,101,8.0,9.0,75,0.00,,---,0.00,VWS V14.01,2013-05-29 07:17:00,
2013-05-29 02:22:00,75.3,66.8,29.58,East,82,5.0,9.0,75,0.00,,---,0.00,VWS V14.01,2013-05-29 07:22:00,
2013-05-29 02:27:00,75.3,66.8,29.58,ENE,73,3.0,10.0,75,0.00,,---,0.00,VWS V14.01,2013-05-29 07:27:00,
2013-05-29 02:32:00,75.3,66.8,29.58,East,85,4.0,8.0,75,0.00,,---,0.00,VWS V14.01,2013-05-29 07:32:00,
2013-05-29 02:37:00,75.2,66.7,29.58,East,79,6.0,9.0,75,0.00,,---,0.00,VWS V14.01,2013-05-29 07:37:00,
2013-05-29 02:42:00,74.9,66.8,29.58,SE,135,7.0,9.0,76,0.00,,---,0.00,VWS V14.01,2013-05-29 07:42:00,
2013-05-29 02:47:00,74.7,66.6,29.58,East,80,5.0,9.0,76,0.00,,---,0.00,VWS V14.01,2013-05-29 07:47:00,
2013-05-29 02:53:00,74.6,66.9,29.57,ESE,115,7.0,11.0,77,0.00,,---,0.00,VWS V14.01,2013-05-29 07:53:00,
2013-05-29 02:58:00,74.6,66.9,29.58,East,98,4.0,11.0,77,0.00,,---,0.00,VWS V14.01,2013-05-29 07:58:00,
2013-05-29 03:03:00,74.5,66.8,29.57,ESE,109,10.0,11.0,77,0.00,,---,0.00,VWS V14.01,2013-05-29 08:03:00,
2013-05-29 03:08:00,74.6,66.9,29.58,ESE,104,7.0,11.0,77,0.00,,---,0.00,VWS V14.01,2013-05-29 08:08:00,
2013-05-29 03:13:00,74.7,67.0,29.58,East,98,7.0,12.0,77,0.00,,---,0.00,VWS V14.01,2013-05-29 08:13:00,
2013-05-29 03:18:00,74.8,67.1,29.57,East,100,9.0,15.0,77,0.00,,---,0.00,VWS V14.01,2013-05-29 08:18:00,
2013-05-29 03:23:00,74.9,67.2,29.57,ENE,73,8.0,15.0,77,0.00,,---,0.00,VWS V14.01,2013-05-29 08:23:00,
2013-05-29 03:28:00,74.8,67.1,29.57,East,101,8.0,15.0,77,0.00,,---,0.00,VWS V14.01,2013-05-29 08:28:00,
2013-05-29 03:33:00,74.7,67.0,29.57,East,86,5.0,9.0,77,0.00,,---,0.00,VWS V14.01,2013-05-29 08:33:00,
2013-05-29 03:38:00,74.6,66.9,29.58,SSE,153,5.0,13.0,77,0.00,,---,0.00,VWS V14.01,2013-05-29 08:38:00,
2013-05-29 03:43:00,74.7,67.0,29.58,SE,127,6.0,13.0,77,0.00,,---,0.00,VWS V14.01,2013-05-29 08:43:00,
2013-05-29 03:48:00,74.9,67.2,29.58,East,89,6.0,13.0,77,0.00,,---,0.00,VWS V14.01,2013-05-29 08:48:00,
2013-05-29 03:53:00,74.9,67.2,29.58,East,82,7.0,13.0,77,0.00,,---,0.00,VWS V14.01,2013-05-29 08:53:00,
2013-05-29 03:58:00,75.0,67.3,29.58,ESE,117,6.0,14.0,77,0.00,,---,0.00,VWS V14.01,2013-05-29 08:58:00,
2013-05-29 04:04:00,75.0,67.3,29.58,ESE,104,6.0,12.0,77,0.00,,---,0.00,VWS V14.01,2013-05-29 09:04:00,
2013-05-29 04:09:00,75.0,67.3,29.58,ESE,108,5.0,12.0,77,0.00,,---,0.00,VWS V14.01,2013-05-29 09:09:00,
2013-05-29 04:14:00,75.0,67.3,29.58,SSE,155,6.0,13.0,77,0.00,,---,0.00,VWS V14.01,2013-05-29 09:14:00,
2013-05-29 04:19:00,74.9,67.6,29.58,SE,131,3.0,13.0,78,0.00,,---,0.00,VWS V14.01,2013-05-29 09:19:00,
2013-05-29 04:24:00,74.8,67.5,29.58,SE,128,10.0,13.0,78,0.00,,---,0.00,VWS V14.01,2013-05-29 09:24:00,
2013-05-29 04:29:00,74.8,67.5,29.57,ESE,122,5.0,16.0,78,0.00,,---,0.00,VWS V14.01,2013-05-29 09:29:00,
2013-05-29 04:34:00,74.7,67.4,29.58,ESE,115,7.0,16.0,78,0.00,,---,0.00,VWS V14.01,2013-05-29 09:34:00,
2013-05-29 04:39:00,74.8,67.9,29.58,SE,129,5.0,16.0,79,0.00,,---,0.00,VWS V14.01,2013-05-29 09:39:00,
2013-05-29 04:44:00,74.8,67.5,29.58,ESE,104,8.0,16.0,78,0.00,,---,0.00,VWS V14.01,2013-05-29 09:44:00,
2013-05-29 04:49:00,74.8,67.5,29.58,SE,146,15.0,16.0,78,0.00,,---,0.00,VWS V14.01,2013-05-29 09:49:00,
2013-05-29 04:54:00,74.8,67.5,29.58,ESE,113,9.0,16.0,78,0.00,,---,0.00,VWS V14.01,2013-05-29 09:54:00,
2013-05-29 04:59:00,74.9,67.6,29.58,SE,124,10.0,16.0,78,0.00,,---,0.00,VWS V14.01,2013-05-29 09:59:00,
2013-05-29 05:04:00,74.9,67.6,29.58,SE,127,9.0,17.0,78,0.00,,---,0.00,VWS V14.01,2013-05-29 10:04:00,
2013-05-29 05:09:00,74.9,67.6,29.58,ESE,110,7.0,17.0,78,0.00,,---,0.00,VWS V14.01,2013-05-29 10:09:00,
2013-05-29 05:14:00,74.9,67.6,29.58,SSE,148,5.0,17.0,78,0.00,,---,0.00,VWS V14.01,2013-05-29 10:14:00,
2013-05-29 05:20:00,74.9,67.6,29.58,SE,129,5.0,17.0,78,0.00,,---,0.00,VWS V14.01,2013-05-29 10:20:00,
2013-05-29 05:25:00,74.9,67.6,29.58,SE,142,10.0,17.0,78,0.00,,---,0.00,VWS V14.01,2013-05-29 10:25:00,
2013-05-29 05:30:00,74.9,67.6,29.58,ESE,115,15.0,17.0,78,0.00,,---,0.00,VWS V14.01,2013-05-29 10:30:00,
2013-05-29 05:35:00,74.9,67.6,29.58,SE,128,10.0,16.0,78,0.00,,---,0.00,VWS V14.01,2013-05-29 10:35:00,
2013-05-29 05:40:00,74.9,67.6,29.58,ESE,112,10.0,16.0,78,0.00,,---,0.00,VWS V14.01,2013-05-29 10:40:00,
2013-05-29 05:45:00,74.8,67.5,29.58,SE,127,9.0,16.0,78,0.00,,---,0.00,VWS V14.01,2013-05-29 10:45:00,
2013-05-29 05:50:00,74.8,67.5,29.58,ESE,114,7.0,16.0,78,0.00,,---,0.00,VWS V14.01,2013-05-29 10:50:00,
2013-05-29 05:55:00,74.8,67.5,29.58,East,96,4.0,16.0,78,0.00,,---,0.00,VWS V14.01,2013-05-29 10:55:00,
2013-05-29 06:00:00,74.7,67.4,29.58,SE,131,8.0,16.0,78,0.00,,---,0.00,VWS V14.01,2013-05-29 11:00:00,
2013-05-29 06:05:00,74.7,67.4,29.59,ESE,113,15.0,15.0,78,0.00,,---,0.00,VWS V14.01,2013-05-29 11:05:00,
2013-05-29 06:10:00,74.7,67.4,29.59,ESE,113,9.0,16.0,78,0.00,,---,0.00,VWS V14.01,2013-05-29 11:10:00,
2013-05-29 06:15:00,74.6,67.7,29.60,ESE,105,9.0,16.0,79,0.00,,---,0.00,VWS V14.01,2013-05-29 11:15:00,
2013-05-29 06:20:00,74.6,67.7,29.60,ESE,115,7.0,16.0,79,0.00,,---,0.00,VWS V14.01,2013-05-29 11:20:00,
2013-05-29 06:26:00,74.5,67.6,29.60,SE,127,8.0,16.0,79,0.00,,---,0.00,VWS V14.01,2013-05-29 11:26:00,
2013-05-29 06:31:00,74.5,67.6,29.60,SE,135,6.0,6.0,79,0.00,,---,0.00,VWS V14.01,2013-05-29 11:31:00,
2013-05-29 06:36:00,74.5,67.6,29.60,SSE,148,6.0,10.0,79,0.00,,---,0.00,VWS V14.01,2013-05-29 11:36:00,
2013-05-29 06:41:00,74.4,67.5,29.60,ENE,75,6.0,13.0,79,0.00,,---,0.00,VWS V14.01,2013-05-29 11:41:00,
2013-05-29 06:46:00,74.4,67.5,29.60,ENE,76,11.0,14.0,79,0.00,,---,0.00,VWS V14.01,2013-05-29 11:46:00,
2013-05-29 06:51:00,74.3,67.4,29.60,SE,139,6.0,19.0,79,0.00,,---,0.00,VWS V14.01,2013-05-29 11:51:00,
2013-05-29 06:56:00,74.3,67.4,29.59,ESE,117,14.0,19.0,79,0.00,,---,0.00,VWS V14.01,2013-05-29 11:56:00,
2013-05-29 07:01:00,74.3,67.4,29.59,SE,124,6.0,7.0,79,0.00,,---,0.00,VWS V14.01,2013-05-29 12:01:00,
2013-05-29 07:06:00,74.2,66.9,29.59,East,93,9.0,15.0,78,0.00,,---,0.00,VWS V14.01,2013-05-29 12:06:00,
2013-05-29 07:11:00,74.2,66.9,29.59,East,98,6.0,15.0,78,0.00,,---,0.00,VWS V14.01,2013-05-29 12:11:00,
2013-05-29 07:16:00,74.1,66.8,29.59,East,97,9.0,15.0,78,0.00,,---,0.00,VWS V14.01,2013-05-29 12:16:00,
2013-05-29 07:21:00,74.1,67.2,29.59,ESE,120,12.0,15.0,79,0.00,,---,0.00,VWS V14.01,2013-05-29 12:21:00,
2013-05-29 07:26:00,74.1,67.2,29.59,SSE,155,6.0,15.0,79,0.00,,---,0.00,VWS V14.01,2013-05-29 12:26:00,
2013-05-29 07:32:00,74.1,66.8,29.59,SE,124,9.0,16.0,78,0.00,,---,0.00,VWS V14.01,2013-05-29 12:32:00,
2013-05-29 07:37:00,74.1,66.8,29.59,East,101,15.0,17.0,78,0.00,,---,0.00,VWS V14.01,2013-05-29 12:37:00,
2013-05-29 07:42:00,74.1,66.8,29.59,ESE,105,8.0,17.0,78,0.00,,---,0.00,VWS V14.01,2013-05-29 12:42:00,
2013-05-29 07:47:00,74.2,66.9,29.59,ESE,117,11.0,17.0,78,0.00,,---,0.00,VWS V14.01,2013-05-29 12:47:00,
2013-05-29 07:52:00,74.3,67.0,29.59,ENE,73,6.0,17.0,78,0.00,,---,0.00,VWS V14.01,2013-05-29 12:52:00,
2013-05-29 07:57:00,74.5,66.8,29.59,ESE,110,10.0,18.0,77,0.00,,---,0.00,VWS V14.01,2013-05-29 12:57:00,
2013-05-29 08:02:00,74.6,66.9,29.59,ESE,110,7.0,10.0,77,0.00,,---,0.00,VWS V14.01,2013-05-29 13:02:00,
2013-05-29 08:07:00,74.7,67.0,29.59,SE,127,11.0,18.0,77,0.00,,---,0.00,VWS V14.01,2013-05-29 13:07:00,
2013-05-29 08:12:00,74.7,67.0,29.59,SSE,149,7.0,18.0,77,0.00,,---,0.00,VWS V14.01,2013-05-29 13:12:00,
2013-05-29 08:17:00,74.9,67.2,29.60,SSE,148,8.0,18.0,77,0.00,,---,0.00,VWS V14.01,2013-05-29 13:17:00,
2013-05-29 08:22:00,75.1,67.4,29.60,SSW,207,6.0,18.0,77,0.00,,---,0.00,VWS V14.01,2013-05-29 13:22:00,
2013-05-29 08:27:00,75.3,67.2,29.60,East,93,9.0,18.0,76,0.00,,---,0.00,VWS V14.01,2013-05-29 13:27:00,
2013-05-29 08:32:00,75.5,67.4,29.60,ESE,108,14.0,17.0,76,0.00,,---,0.00,VWS V14.01,2013-05-29 13:32:00,
2013-05-29 08:37:00,75.6,67.1,29.60,East,96,10.0,18.0,75,0.00,,---,0.00,VWS V14.01,2013-05-29 13:37:00,
2013-05-29 08:43:00,75.7,67.6,29.60,SE,143,13.0,18.0,76,0.00,,---,0.00,VWS V14.01,2013-05-29 13:43:00,
2013-05-29 08:48:00,75.8,67.3,29.60,SE,127,9.0,19.0,75,0.00,,---,0.00,VWS V14.01,2013-05-29 13:48:00,
2013-05-29 08:53:00,76.0,67.5,29.59,ESE,110,17.0,19.0,75,0.00,,---,0.00,VWS V14.01,2013-05-29 13:53:00,
2013-05-29 08:58:00,76.4,67.5,29.59,SE,136,12.0,24.0,74,0.00,,---,0.00,VWS V14.01,2013-05-29 13:58:00,
2013-05-29 09:03:00,76.9,68.0,29.59,SSE,150,12.0,21.0,74,0.00,,---,0.00,VWS V14.01,2013-05-29 14:03:00,
2013-05-29 09:08:00,77.4,67.7,29.59,East,100,12.0,21.0,72,0.00,,---,0.00,VWS V14.01,2013-05-29 14:08:00,
2013-05-29 09:13:00,77.5,67.8,29.59,SE,139,12.0,24.0,72,0.00,,---,0.00,VWS V14.01,2013-05-29 14:13:00,
2013-05-29 09:18:00,77.4,67.7,29.59,SE,140,18.0,25.0,72,0.00,,---,0.00,VWS V14.01,2013-05-29 14:18:00,
2013-05-29 09:23:00,77.2,67.5,29.59,SE,145,10.0,25.0,72,0.00,,---,0.00,VWS V14.01,2013-05-29 14:23:00,
2013-05-29 09:28:00,77.2,67.5,29.59,SE,124,10.0,25.0,72,0.00,,---,0.00,VWS V14.01,2013-05-29 14:28:00,
2013-05-29 09:33:00,77.2,67.5,29.59,SE,127,14.0,24.0,72,0.00,,---,0.00,VWS V14.01,2013-05-29 14:33:00,
2013-05-29 09:38:00,77.4,67.7,29.59,ESE,113,10.0,24.0,72,0.00,,---,0.00,VWS V14.01,2013-05-29 14:38:00,
2013-05-29 09:43:00,77.6,67.5,29.59,ESE,115,14.0,24.0,71,0.00,,---,0.00,VWS V14.01,2013-05-29 14:43:00,
2013-05-29 09:49:00,77.6,67.5,29.59,ESE,118,10.0,24.0,71,0.00,,---,0.00,VWS V14.01,2013-05-29 14:49:00,
2013-05-29 09:54:00,77.8,67.7,29.59,SE,145,9.0,24.0,71,0.00,,---,0.00,VWS V14.01,2013-05-29 14:54:00,
2013-05-29 09:59:00,78.1,67.5,29.58,ESE,110,14.0,24.0,70,0.00,,---,0.00,VWS V14.01,2013-05-29 14:59:00,
2013-05-29 10:04:00,78.5,67.9,29.58,SE,127,20.0,21.0,70,0.00,,---,0.00,VWS V14.01,2013-05-29 15:04:00,
2013-05-29 10:09:00,78.7,67.7,29.58,East,101,8.0,21.0,69,0.00,,---,0.00,VWS V14.01,2013-05-29 15:09:00,
2013-05-29 10:14:00,79.2,67.7,29.58,SE,129,8.0,26.0,68,0.00,,---,0.00,VWS V14.01,2013-05-29 15:14:00,
2013-05-29 10:19:00,79.4,67.9,29.58,SE,132,6.0,26.0,68,0.00,,---,0.00,VWS V14.01,2013-05-29 15:19:00,
2013-05-29 10:24:00,79.9,68.0,29.57,SE,127,19.0,26.0,67,0.00,,---,0.00,VWS V14.01,2013-05-29 15:24:00,
2013-05-29 10:29:00,80.3,67.9,29.57,SSW,193,25.0,26.0,66,0.00,,---,0.00,VWS V14.01,2013-05-29 15:29:00,
2013-05-29 10:34:00,80.7,67.8,29.57,SE,139,19.0,26.0,65,0.00,,---,0.00,VWS V14.01,2013-05-29 15:34:00,
2013-05-29 10:39:00,81.1,67.8,29.57,SE,129,13.0,26.0,64,0.00,,---,0.00,VWS V14.01,2013-05-29 15:39:00,
2013-05-29 10:44:00,80.9,67.6,29.57,SE,135,19.0,26.0,64,0.00,,---,0.00,VWS V14.01,2013-05-29 15:44:00,
2013-05-29 10:49:00,81.3,68.0,29.57,ESE,117,10.0,26.0,64,0.00,,---,0.00,VWS V14.01,2013-05-29 15:49:00,
2013-05-29 10:55:00,81.5,67.7,29.56,SE,133,16.0,26.0,63,0.00,,---,0.00,VWS V14.01,2013-05-29 15:55:00,
2013-05-29 11:00:00,81.7,68.3,29.57,ENE,67,17.0,26.0,64,0.00,,---,0.00,VWS V14.01,2013-05-29 16:00:00,
2013-05-29 11:05:00,82.2,67.9,29.57,SE,139,13.0,22.0,62,0.00,,---,0.00,VWS V14.01,2013-05-29 16:05:00,
2013-05-29 11:10:00,81.9,67.6,29.57,East,100,15.0,26.0,62,0.00,,---,0.00,VWS V14.01,2013-05-29 16:10:00,
2013-05-29 11:15:00,81.8,67.5,29.57,ESE,111,18.0,26.0,62,0.00,,---,0.00,VWS V14.01,2013-05-29 16:15:00,
2013-05-29 11:20:00,82.2,67.4,29.57,SSE,165,19.0,26.0,61,0.00,,---,0.00,VWS V14.01,2013-05-29 16:20:00,
2013-05-29 11:25:00,81.8,67.5,29.57,South,179,16.0,27.0,62,0.00,,---,0.00,VWS V14.01,2013-05-29 16:25:00,
2013-05-29 11:30:00,82.0,67.7,29.57,SE,134,14.0,27.0,62,0.00,,---,0.00,VWS V14.01,2013-05-29 16:30:00,
2013-05-29 11:35:00,81.8,67.1,29.57,SE,136,13.0,24.0,61,0.00,,---,0.00,VWS V14.01,2013-05-29 16:35:00,
2013-05-29 11:40:00,81.7,67.4,29.57,SE,142,19.0,27.0,62,0.00,,---,0.00,VWS V14.01,2013-05-29 16:40:00,
2013-05-29 11:45:00,81.8,67.5,29.56,SSE,155,21.0,27.0,62,0.00,,---,0.00,VWS V14.01,2013-05-29 16:45:00,
2013-05-29 11:50:00,82.2,67.4,29.56,SE,146,11.0,27.0,61,0.00,,---,0.00,VWS V14.01,2013-05-29 16:50:00,
2013-05-29 11:55:00,82.7,66.9,29.56,SE,146,14.0,28.0,59,0.00,,---,0.00,VWS V14.01,2013-05-29 16:55:00,
2013-05-29 12:00:00,82.8,67.0,29.56,SSE,153,24.0,33.0,59,0.00,,---,0.00,VWS V14.01,2013-05-29 17:00:00,
2013-05-29 12:06:00,82.9,67.1,29.56,South,170,15.0,25.0,59,0.00,,---,0.00,VWS V14.01,2013-05-29 17:06:00,
2013-05-29 12:11:00,83.2,67.4,29.56,SSE,147,11.0,25.0,59,0.00,,---,0.00,VWS V14.01,2013-05-29 17:11:00,
2013-05-29 12:16:00,83.0,66.7,29.56,SSE,149,17.0,31.0,58,0.00,,---,0.00,VWS V14.01,2013-05-29 17:16:00,
2013-05-29 12:21:00,82.8,66.5,29.56,SE,146,15.0,31.0,58,0.00,,---,0.00,VWS V14.01,2013-05-29 17:21:00,
2013-05-29 12:26:00,82.6,66.3,29.56,SSE,159,19.0,31.0,58,0.00,,---,0.00,VWS V14.01,2013-05-29 17:26:00,
2013-05-29 12:31:00,82.8,66.5,29.56,SSW,194,21.0,24.0,58,0.00,,---,0.00,VWS V14.01,2013-05-29 17:31:00,
2013-05-29 12:36:00,83.4,66.6,29.55,SSE,156,21.0,25.0,57,0.00,,---,0.00,VWS V14.01,2013-05-29 17:36:00,
2013-05-29 12:41:00,84.2,66.8,29.55,SE,139,17.0,28.0,56,0.00,,---,0.00,VWS V14.01,2013-05-29 17:41:00,
2013-05-29 12:46:00,84.8,66.8,29.55,SSE,166,14.0,28.0,55,0.00,,---,0.00,VWS V14.01,2013-05-29 17:46:00,
2013-05-29 12:51:00,84.6,66.1,29.55,SSW,208,17.0,29.0,54,0.00,,---,0.00,VWS V14.01,2013-05-29 17:51:00,
2013-05-29 12:56:00,85.0,66.0,29.54,SSE,155,19.0,31.0,53,0.00,,---,0.00,VWS V14.01,2013-05-29 17:56:00,
2013-05-29 13:01:00,85.1,66.1,29.54,SE,137,18.0,28.0,53,0.00,,---,0.00,VWS V14.01,2013-05-29 18:01:00,
2013-05-29 13:06:00,85.4,65.8,29.53,ESE,108,25.0,29.0,52,0.00,,---,0.00,VWS V14.01,2013-05-29 18:06:00,
2013-05-29 13:11:00,85.3,65.7,29.53,SE,134,16.0,32.0,52,0.00,,---,0.00,VWS V14.01,2013-05-29 18:11:00,
2013-05-29 13:16:00,85.4,65.2,29.53,South,183,17.0,32.0,51,0.00,,---,0.00,VWS V14.01,2013-05-29 18:16:00,
2013-05-29 13:22:00,85.5,65.9,29.53,SSW,194,13.0,32.0,52,0.00,,---,0.00,VWS V14.01,2013-05-29 18:22:00,
2013-05-29 13:27:00,86.0,65.8,29.52,South,176,18.0,32.0,51,0.00,,---,0.00,VWS V14.01,2013-05-29 18:27:00,
2013-05-29 13:32:00,86.4,66.2,29.52,South,188,14.0,24.0,51,0.00,,---,0.00,VWS V14.01,2013-05-29 18:32:00,
2013-05-29 13:37:00,86.7,65.9,29.52,SSE,167,13.0,31.0,50,0.00,,---,0.00,VWS V14.01,2013-05-29 18:37:00,
2013-05-29 13:42:00,87.0,66.1,29.51,ESE,110,15.0,31.0,50,0.00,,---,0.00,VWS V14.01,2013-05-29 18:42:00,
2013-05-29 13:47:00,87.1,65.6,29.51,SSE,164,19.0,31.0,49,0.00,,---,0.00,VWS V14.01,2013-05-29 18:47:00,
2013-05-29 13:52:00,87.2,65.7,29.51,SE,133,19.0,31.0,49,0.00,,---,0.00,VWS V14.01,2013-05-29 18:52:00,
2013-05-29 13:57:00,87.1,65.6,29.51,South,172,16.0,31.0,49,0.00,,---,0.00,VWS V14.01,2013-05-29 18:57:00,
2013-05-29 14:02:00,86.7,65.3,29.51,South,174,28.0,32.0,49,0.00,,---,0.00,VWS V14.01,2013-05-29 19:02:00,
2013-05-29 14:07:00,86.6,65.8,29.51,SSE,149,14.0,32.0,50,0.00,,---,0.00,VWS V14.01,2013-05-29 19:07:00,
2013-05-29 14:12:00,86.8,65.4,29.51,SE,128,18.0,32.0,49,0.00,,---,0.00,VWS V14.01,2013-05-29 19:12:00,
2013-05-29 14:17:00,86.8,65.4,29.51,SE,129,13.0,32.0,49,0.00,,---,0.00,VWS V14.01,2013-05-29 19:17:00,
2013-05-29 14:22:00,87.5,65.4,29.50,ESE,112,14.0,32.0,48,0.00,,---,0.00,VWS V14.01,2013-05-29 19:22:00,
2013-05-29 14:27:00,87.3,65.8,29.50,ESE,115,14.0,32.0,49,0.00,,---,0.00,VWS V14.01,2013-05-29 19:27:00,
2013-05-29 14:32:00,87.4,65.3,29.50,SE,143,13.0,21.0,48,0.00,,---,0.00,VWS V14.01,2013-05-29 19:32:00,
2013-05-29 14:38:00,87.4,65.3,29.50,SSE,152,17.0,30.0,48,0.00,,---,0.00,VWS V14.01,2013-05-29 19:38:00,
2013-05-29 14:43:00,87.5,64.8,29.50,SE,146,18.0,30.0,47,0.00,,---,0.00,VWS V14.01,2013-05-29 19:43:00,
2013-05-29 14:48:00,87.6,65.5,29.50,SE,133,18.0,30.0,48,0.00,,---,0.00,VWS V14.01,2013-05-29 19:48:00,
2013-05-29 14:53:00,87.9,65.2,29.49,SSE,168,10.0,31.0,47,0.00,,---,0.00,VWS V14.01,2013-05-29 19:53:00,
2013-05-29 14:58:00,87.7,65.0,29.49,SE,141,20.0,31.0,47,0.00,,---,0.00,VWS V14.01,2013-05-29 19:58:00,
2013-05-29 15:03:00,87.4,64.7,29.49,SSE,152,19.0,26.0,47,0.00,,---,0.00,VWS V14.01,2013-05-29 20:03:00,
2013-05-29 15:08:00,86.8,65.9,29.50,SSE,163,26.0,33.0,50,0.00,,---,0.00,VWS V14.01,2013-05-29 20:08:00,
2013-05-29 15:13:00,84.7,66.2,29.50,SSE,149,15.0,33.0,54,0.01,,---,0.01,VWS V14.01,2013-05-29 20:13:00,
2013-05-29 15:18:00,84.1,65.7,29.49,SSE,158,17.0,33.0,54,0.01,,---,0.01,VWS V14.01,2013-05-29 20:18:00,
2013-05-29 15:23:00,84.0,66.6,29.49,ESE,104,17.0,33.0,56,0.02,,---,0.02,VWS V14.01,2013-05-29 20:23:00,
2013-05-29 15:28:00,83.3,67.0,29.48,SE,138,15.0,33.0,58,0.02,,---,0.02,VWS V14.01,2013-05-29 20:28:00,
2013-05-29 15:34:00,83.0,67.2,29.47,SSE,153,15.0,20.0,59,0.02,,---,0.02,VWS V14.01,2013-05-29 20:34:00,
2013-05-29 15:39:00,83.2,66.9,29.47,SE,139,16.0,31.0,58,0.02,,---,0.02,VWS V14.01,2013-05-29 20:39:00,
2013-05-29 15:44:00,83.4,67.6,29.46,South,177,18.0,31.0,59,0.02,,---,0.02,VWS V14.01,2013-05-29 20:44:00,
2013-05-29 15:49:00,83.4,67.6,29.46,SSE,148,10.0,31.0,59,0.02,,---,0.02,VWS V14.01,2013-05-29 20:49:00,
2013-05-29 15:54:00,83.2,67.4,29.44,ESE,113,10.0,31.0,59,0.02,,---,0.02,VWS V14.01,2013-05-29 20:54:00,
2013-05-29 15:59:00,83.0,67.2,29.44,SSE,150,10.0,31.0,59,0.02,,---,0.02,VWS V14.01,2013-05-29 20:59:00,
2013-05-29 16:04:00,82.9,67.6,29.44,SE,142,18.0,20.0,60,0.02,,---,0.02,VWS V14.01,2013-05-29 21:04:00,
2013-05-29 16:09:00,83.0,67.2,29.44,SE,132,15.0,28.0,59,0.02,,---,0.02,VWS V14.01,2013-05-29 21:09:00,
2013-05-29 16:14:00,83.1,67.3,29.43,SSE,158,16.0,28.0,59,0.02,,---,0.02,VWS V14.01,2013-05-29 21:14:00,
2013-05-29 16:19:00,83.0,67.7,29.42,SE,143,23.0,28.0,60,0.02,,---,0.02,VWS V14.01,2013-05-29 21:19:00,
2013-05-29 16:24:00,82.9,68.1,29.42,ESE,121,12.0,28.0,61,0.02,,---,0.02,VWS V14.01,2013-05-29 21:24:00,
2013-05-29 16:29:00,82.9,68.1,29.41,SE,145,22.0,29.0,61,0.02,,---,0.02,VWS V14.01,2013-05-29 21:29:00,
2013-05-29 16:34:00,82.9,68.6,29.39,SE,136,15.0,26.0,62,0.00,,---,0.02,VWS V14.01,2013-05-29 21:34:00,
2013-05-29 16:40:00,82.9,67.6,29.40,SSE,147,15.0,27.0,60,0.00,,---,0.02,VWS V14.01,2013-05-29 21:40:00,
2013-05-29 16:45:00,83.1,67.8,29.39,SE,135,10.0,34.0,60,0.00,,---,0.02,VWS V14.01,2013-05-29 21:45:00,
2013-05-29 16:50:00,82.4,68.6,29.40,SSE,167,18.0,34.0,63,0.00,,---,0.02,VWS V14.01,2013-05-29 21:50:00,
2013-05-29 16:55:00,81.9,68.5,29.40,SSE,163,14.0,34.0,64,0.00,,---,0.02,VWS V14.01,2013-05-29 21:55:00,
2013-05-29 17:00:00,81.7,67.9,29.40,ESE,104,26.0,34.0,63,0.00,,---,0.02,VWS V14.01,2013-05-29 22:00:00,
2013-05-29 17:05:00,82.0,67.7,29.39,ESE,110,17.0,28.0,62,0.00,,---,0.02,VWS V14.01,2013-05-29 22:05:00,
2013-05-29 17:10:00,82.4,67.1,29.40,SSE,166,22.0,33.0,60,0.00,,---,0.02,VWS V14.01,2013-05-29 22:10:00,
2013-05-29 17:15:00,82.5,67.2,29.39,SE,124,25.0,33.0,60,0.00,,---,0.02,VWS V14.01,2013-05-29 22:15:00,
2013-05-29 17:20:00,83.2,67.9,29.40,SE,126,23.0,37.0,60,0.00,,---,0.02,VWS V14.01,2013-05-29 22:20:00,
2013-05-29 17:25:00,84.1,67.7,29.40,SE,136,24.0,37.0,58,0.00,,---,0.02,VWS V14.01,2013-05-29 22:25:00,
2013-05-29 17:30:00,84.8,68.4,29.40,SE,128,21.0,37.0,58,0.00,,---,0.02,VWS V14.01,2013-05-29 22:30:00,
2013-05-29 17:35:00,85.2,68.3,29.40,SE,141,21.0,39.0,57,0.00,,---,0.02,VWS V14.01,2013-05-29 22:35:00,
2013-05-29 17:40:00,85.1,68.7,29.40,SSE,149,22.0,41.0,58,0.00,,---,0.02,VWS V14.01,2013-05-29 22:40:00,
2013-05-29 17:45:00,85.4,68.4,29.39,SE,132,17.0,41.0,57,0.00,,---,0.02,VWS V14.01,2013-05-29 22:45:00,
2013-05-29 17:51:00,85.7,68.7,29.40,SE,124,26.0,41.0,57,0.00,,---,0.02,VWS V14.01,2013-05-29 22:51:00,
2013-05-29 17:56:00,85.9,68.4,29.40,South,177,29.0,41.0,56,0.00,,---,0.02,VWS V14.01,2013-05-29 22:56:00,
2013-05-29 18:01:00,86.1,68.6,29.40,ESE,121,22.0,26.0,56,0.00,,---,0.02,VWS V14.01,2013-05-29 23:01:00,
2013-05-29 18:06:00,86.0,68.0,29.40,SE,129,25.0,38.0,55,0.00,,---,0.02,VWS V14.01,2013-05-29 23:06:00,
2013-05-29 18:11:00,85.9,68.4,29.39,ESE,103,30.0,41.0,56,0.00,,---,0.02,VWS V14.01,2013-05-29 23:11:00,
2013-05-29 18:16:00,85.8,68.3,29.39,SE,142,28.0,41.0,56,0.00,,---,0.02,VWS V14.01,2013-05-29 23:16:00,
2013-05-29 18:21:00,85.8,68.3,29.39,SE,136,11.0,41.0,56,0.00,,---,0.02,VWS V14.01,2013-05-29 23:21:00,
2013-05-29 18:26:00,86.0,68.5,29.40,ESE,114,32.0,41.0,56,0.00,,---,0.02,VWS V14.01,2013-05-29 23:26:00,
2013-05-29 18:31:00,86.0,68.5,29.39,SE,124,28.0,28.0,56,0.00,,---,0.02,VWS V14.01,2013-05-29 23:31:00,
2013-05-29 21:00:00,82.0,68.2,29.43,SE,135,16.0,30.0,63,0.00,,---,0.02,VWS V14.01,2013-05-30 02:00:00,
2013-05-29 21:32:00,82.0,68.2,29.43,SE,135,16.0,30.0,63,0.00,,---,0.02,VWS V14.01,2013-05-30 02:32:00,
2013-05-29 21:37:00,81.4,68.5,29.44,SE,136,20.0,24.0,65,0.00,,---,0.02,VWS V14.01,2013-05-30 02:37:00,
2013-05-29 21:43:00,81.3,68.4,29.44,SE,134,16.0,24.0,65,0.00,,---,0.02,VWS V14.01,2013-05-30 02:43:00,
2013-05-29 21:48:00,81.2,68.3,29.45,SE,134,15.0,24.0,65,0.00,,---,0.02,VWS V14.01,2013-05-30 02:48:00,
2013-05-29 21:53:00,81.1,68.7,29.45,ESE,118,21.0,27.0,66,0.00,,---,0.02,VWS V14.01,2013-05-30 02:53:00,
2013-05-29 21:58:00,81.1,68.7,29.45,ESE,117,10.0,29.0,66,0.00,,---,0.02,VWS V14.01,2013-05-30 02:58:00,
2013-05-29 22:03:00,80.9,68.5,29.45,SSE,160,15.0,25.0,66,0.00,,---,0.02,VWS V14.01,2013-05-30 03:03:00,
2013-05-29 22:08:00,80.8,68.8,29.45,SE,143,15.0,25.0,67,0.00,,---,0.02,VWS V14.01,2013-05-30 03:08:00,
2013-05-29 22:13:00,80.7,68.7,29.45,SE,143,15.0,25.0,67,0.00,,---,0.02,VWS V14.01,2013-05-30 03:13:00,
2013-05-29 22:19:00,80.5,68.5,29.46,ESE,121,13.0,25.0,67,0.00,,---,0.02,VWS V14.01,2013-05-30 03:19:00,
2013-05-29 22:24:00,80.6,68.6,29.46,SE,133,14.0,26.0,67,0.00,,---,0.02,VWS V14.01,2013-05-30 03:24:00,
2013-05-29 22:29:00,80.6,68.6,29.46,SE,127,7.0,26.0,67,0.00,,---,0.02,VWS V14.01,2013-05-30 03:29:00,
2013-05-29 22:34:00,80.4,68.9,29.46,SE,146,13.0,21.0,68,0.00,,---,0.02,VWS V14.01,2013-05-30 03:34:00,
2013-05-29 22:39:00,80.2,68.7,29.47,SE,124,25.0,27.0,68,0.00,,---,0.02,VWS V14.01,2013-05-30 03:39:00,
2013-05-29 22:44:00,80.1,68.6,29.47,SE,124,14.0,27.0,68,0.00,,---,0.02,VWS V14.01,2013-05-30 03:44:00,
2013-05-29 22:49:00,80.1,68.6,29.47,SE,136,13.0,27.0,68,0.00,,---,0.02,VWS V14.01,2013-05-30 03:49:00,
2013-05-29 22:54:00,80.1,69.0,29.47,SSE,148,11.0,27.0,69,0.00,,---,0.02,VWS V14.01,2013-05-30 03:54:00,
2013-05-29 22:59:00,80.0,68.9,29.47,SE,135,15.0,27.0,69,0.00,,---,0.02,VWS V14.01,2013-05-30 03:59:00,
2013-05-29 23:01:00,80.0,68.9,29.47,SE,146,13.0,18.0,69,0.00,,---,0.02,VWS V14.01,2013-05-30 04:01:00,
2013-05-29 23:02:00,80.0,68.9,29.47,SE,133,15.0,21.0,69,0.00,,---,0.02,VWS V14.01,2013-05-30 04:02:00,
2013-05-29 23:03:00,80.0,68.9,29.47,ESE,117,15.0,21.0,69,0.00,,---,0.02,VWS V14.01,2013-05-30 04:03:00,
2013-05-29 23:08:00,79.8,69.2,29.48,SSE,156,13.0,24.0,70,0.00,,---,0.02,VWS V14.01,2013-05-30 04:08:00,
2013-05-29 23:13:00,79.9,69.2,29.48,ESE,106,13.0,29.0,70,0.00,,---,0.02,VWS V14.01,2013-05-30 04:13:00,
2013-05-29 23:18:00,79.8,69.2,29.47,South,172,12.0,29.0,70,0.00,,---,0.02,VWS V14.01,2013-05-30 04:18:00,
2013-05-29 23:23:00,79.8,69.6,29.48,SE,131,24.0,29.0,71,0.00,,---,0.02,VWS V14.01,2013-05-30 04:23:00,
2013-05-29 23:28:00,79.9,69.2,29.48,SSE,168,18.0,32.0,70,0.00,,---,0.02,VWS V14.01,2013-05-30 04:28:00,
2013-05-29 23:33:00,79.9,69.2,29.48,SSE,156,25.0,33.0,70,0.00,,---,0.02,VWS V14.01,2013-05-30 04:33:00,
2013-05-29 23:38:00,79.8,69.2,29.48,SE,146,15.0,33.0,70,0.00,,---,0.02,VWS V14.01,2013-05-30 04:38:00,
2013-05-29 23:44:00,79.7,69.5,29.48,SE,124,15.0,33.0,71,0.00,,---,0.02,VWS V14.01,2013-05-30 04:44:00,
2013-05-29 23:49:00,79.6,69.4,29.48,SE,133,14.0,33.0,71,0.00,,---,0.02,VWS V14.01,2013-05-30 04:49:00,
2013-05-29 23:54:00,79.5,69.3,29.48,SSE,153,14.0,33.0,71,0.00,,---,0.02,VWS V14.01,2013-05-30 04:54:00,
2013-05-29 23:59:00,79.4,69.2,29.48,SE,127,19.0,33.0,71,0.00,,---,0.02,VWS V14.01,2013-05-30 04:59:00,